owner,sensor,date,latitude,longitude,air_temperature,qcFlag 
COMPS,ioos:station:USF.COMPS:SHP:1,2019-07-01T00:54:00,30.0600,-84.2910,27.65,11111222 
COMPS,ioos:station:USF.COMPS:SHP:1,2019-07-01T01:54:00,30.0600,-84.2910,24.61,11111222 
COMPS,ioos:station:USF.COMPS:SHP:1,2019-07-01T02:54:00,30.0600,-84.2910,27.99,11111222 
COMPS,ioos:station:USF.COMPS:SHP:1,2019-07-01T03:54:00,30.0600,-84.2910,27.91,11111222 
COMPS,ioos:station:USF.COMPS:SHP:1,2019-07-01T04:54:00,30.0600,-84.2910,27.14,11111222 
COMPS,ioos:station:USF.COMPS:SHP:1,2019-07-01T05:54:00,30.0600,-84.2910,26.58,11111222 
COMPS,ioos:station:USF.COMPS:SHP:1,2019-07-01T06:54:00,30.0600,-84.2910,26.39,11111222 
COMPS,ioos:station:USF.COMPS:SHP:1,2019-07-01T07:54:00,30.0600,-84.2910,26.13,11111222 
COMPS,ioos:station:USF.COMPS:SHP:1,2019-07-01T08:54:00,30.0600,-84.2910,25.65,11111222 
COMPS,ioos:station:USF.COMPS:SHP:1,2019-07-01T09:54:00,30.0600,-84.2910,24.34,11111222 
COMPS,ioos:station:USF.COMPS:SHP:1,2019-07-01T10:54:00,30.0600,-84.2910,24.5,11111222 
COMPS,ioos:station:USF.COMPS:SHP:1,2019-07-01T11:54:00,30.0600,-84.2910,25.47,11111222 
COMPS,ioos:station:USF.COMPS:SHP:1,2019-07-01T12:54:00,30.0600,-84.2910,27.08,11111222 
COMPS,ioos:station:USF.COMPS:SHP:1,2019-07-01T14:54:00,30.0600,-84.2910,30.19,11111222 
COMPS,ioos:station:USF.COMPS:SHP:1,2019-07-01T15:54:00,30.0600,-84.2910,31.13,11111222 
COMPS,ioos:station:USF.COMPS:SHP:1,2019-07-01T16:54:00,30.0600,-84.2910,32.39,11111222 
COMPS,ioos:station:USF.COMPS:SHP:1,2019-07-01T17:54:00,30.0600,-84.2910,32.28,11111222 
COMPS,ioos:station:USF.COMPS:SHP:1,2019-07-01T18:54:00,30.0600,-84.2910,30.78,11111222 
COMPS,ioos:station:USF.COMPS:SHP:1,2019-07-01T19:54:00,30.0600,-84.2910,31.47,11111222 
COMPS,ioos:station:USF.COMPS:SHP:1,2019-07-01T20:54:00,30.0600,-84.2910,30.67,11111222 
COMPS,ioos:station:USF.COMPS:SHP:1,2019-07-01T21:54:00,30.0600,-84.2910,31.14,11111222 
COMPS,ioos:station:USF.COMPS:SHP:1,2019-07-01T22:54:00,30.0600,-84.2910,30.46,11111222 
COMPS,ioos:station:USF.COMPS:SHP:1,2019-07-01T23:54:00,30.0600,-84.2910,29.94,11111222 
COMPS,ioos:station:USF.COMPS:SHP:1,2019-07-02T00:54:00,30.0600,-84.2910,29.59,11111222 
COMPS,ioos:station:USF.COMPS:SHP:1,2019-07-02T01:54:00,30.0600,-84.2910,28.7,11111222 
COMPS,ioos:station:USF.COMPS:SHP:1,2019-07-02T02:54:00,30.0600,-84.2910,28.42,11111222 
COMPS,ioos:station:USF.COMPS:SHP:1,2019-07-02T03:54:00,30.0600,-84.2910,27.8,11111222 
COMPS,ioos:station:USF.COMPS:SHP:1,2019-07-02T04:54:00,30.0600,-84.2910,27.38,11111222 
COMPS,ioos:station:USF.COMPS:SHP:1,2019-07-02T05:54:00,30.0600,-84.2910,27.07,11111222 
COMPS,ioos:station:USF.COMPS:SHP:1,2019-07-02T06:54:00,30.0600,-84.2910,26.8,11111222 
COMPS,ioos:station:USF.COMPS:SHP:1,2019-07-02T07:54:00,30.0600,-84.2910,26.49,11111222 
COMPS,ioos:station:USF.COMPS:SHP:1,2019-07-02T08:54:00,30.0600,-84.2910,26.02,11111222 
COMPS,ioos:station:USF.COMPS:SHP:1,2019-07-02T09:54:00,30.0600,-84.2910,25.9,11111222 
COMPS,ioos:station:USF.COMPS:SHP:1,2019-07-02T10:54:00,30.0600,-84.2910,25.77,11111222 
COMPS,ioos:station:USF.COMPS:SHP:1,2019-07-02T11:54:00,30.0600,-84.2910,26.02,11111222 
COMPS,ioos:station:USF.COMPS:SHP:1,2019-07-02T12:54:00,30.0600,-84.2910,27.69,11111222 
COMPS,ioos:station:USF.COMPS:SHP:1,2019-07-02T13:54:00,30.0600,-84.2910,29.16,11111222 
COMPS,ioos:station:USF.COMPS:SHP:1,2019-07-02T14:54:00,30.0600,-84.2910,30.9,11111222 
COMPS,ioos:station:USF.COMPS:SHP:1,2019-07-02T15:54:00,30.0600,-84.2910,31.99,11111222 
COMPS,ioos:station:USF.COMPS:SHP:1,2019-07-02T16:54:00,30.0600,-84.2910,32.77,11111222 
COMPS,ioos:station:USF.COMPS:SHP:1,2019-07-02T17:54:00,30.0600,-84.2910,32.59,11111222 
COMPS,ioos:station:USF.COMPS:SHP:1,2019-07-02T18:54:00,30.0600,-84.2910,32.76,11111222 
COMPS,ioos:station:USF.COMPS:SHP:1,2019-07-02T19:54:00,30.0600,-84.2910,31.9,11111222 
COMPS,ioos:station:USF.COMPS:SHP:1,2019-07-02T20:54:00,30.0600,-84.2910,32.54,11111222 
COMPS,ioos:station:USF.COMPS:SHP:1,2019-07-02T21:54:00,30.0600,-84.2910,31.46,11111222 
COMPS,ioos:station:USF.COMPS:SHP:1,2019-07-02T22:54:00,30.0600,-84.2910,30.82,11111222 
COMPS,ioos:station:USF.COMPS:SHP:1,2019-07-02T23:54:00,30.0600,-84.2910,28.55,11111222 
COMPS,ioos:station:USF.COMPS:SHP:1,2019-07-03T00:54:00,30.0600,-84.2910,27.87,11111222 
COMPS,ioos:station:USF.COMPS:SHP:1,2019-07-03T01:54:00,30.0600,-84.2910,27.73,11111222 
COMPS,ioos:station:USF.COMPS:SHP:1,2019-07-03T02:54:00,30.0600,-84.2910,27.61,11111222 
COMPS,ioos:station:USF.COMPS:SHP:1,2019-07-03T03:54:00,30.0600,-84.2910,27.35,11111222 
COMPS,ioos:station:USF.COMPS:SHP:1,2019-07-03T04:54:00,30.0600,-84.2910,27.07,11111222 
COMPS,ioos:station:USF.COMPS:SHP:1,2019-07-03T05:54:00,30.0600,-84.2910,26.94,11111222 
COMPS,ioos:station:USF.COMPS:SHP:1,2019-07-03T06:54:00,30.0600,-84.2910,26.4,11111222 
COMPS,ioos:station:USF.COMPS:SHP:1,2019-07-03T07:54:00,30.0600,-84.2910,26.26,11111222 
COMPS,ioos:station:USF.COMPS:SHP:1,2019-07-03T08:54:00,30.0600,-84.2910,26.16,11111222 
COMPS,ioos:station:USF.COMPS:SHP:1,2019-07-03T09:54:00,30.0600,-84.2910,25.71,11111222 
COMPS,ioos:station:USF.COMPS:SHP:1,2019-07-03T10:54:00,30.0600,-84.2910,25.3,11111222 
COMPS,ioos:station:USF.COMPS:SHP:1,2019-07-03T11:54:00,30.0600,-84.2910,25.59,11111222 
COMPS,ioos:station:USF.COMPS:SHP:1,2019-07-03T12:54:00,30.0600,-84.2910,27.24,11111222 
COMPS,ioos:station:USF.COMPS:SHP:1,2019-07-03T13:54:00,30.0600,-84.2910,29.24,11111222 
COMPS,ioos:station:USF.COMPS:SHP:1,2019-07-03T14:54:00,30.0600,-84.2910,30.9,11111222 
COMPS,ioos:station:USF.COMPS:SHP:1,2019-07-03T15:54:00,30.0600,-84.2910,31.7,11111222 
COMPS,ioos:station:USF.COMPS:SHP:1,2019-07-03T16:54:00,30.0600,-84.2910,32.08,11111222 
COMPS,ioos:station:USF.COMPS:SHP:1,2019-07-03T17:54:00,30.0600,-84.2910,32.08,11111222 
COMPS,ioos:station:USF.COMPS:SHP:1,2019-07-03T18:54:00,30.0600,-84.2910,32.52,11111222 
COMPS,ioos:station:USF.COMPS:SHP:1,2019-07-03T19:54:00,30.0600,-84.2910,31.81,11111222 
COMPS,ioos:station:USF.COMPS:SHP:1,2019-07-03T20:54:00,30.0600,-84.2910,30.5,11111222 
COMPS,ioos:station:USF.COMPS:SHP:1,2019-07-03T21:54:00,30.0600,-84.2910,31.03,11111222 
COMPS,ioos:station:USF.COMPS:SHP:1,2019-07-03T22:54:00,30.0600,-84.2910,28.86,11111222 
COMPS,ioos:station:USF.COMPS:SHP:1,2019-07-03T23:54:00,30.0600,-84.2910,27.47,11111222 
COMPS,ioos:station:USF.COMPS:SHP:1,2019-07-04T00:54:00,30.0600,-84.2910,27.77,11111222 
COMPS,ioos:station:USF.COMPS:SHP:1,2019-07-04T01:54:00,30.0600,-84.2910,27.33,11111222 
COMPS,ioos:station:USF.COMPS:SHP:1,2019-07-04T02:54:00,30.0600,-84.2910,27.07,11111222 
COMPS,ioos:station:USF.COMPS:SHP:1,2019-07-04T03:54:00,30.0600,-84.2910,27.07,11111222 
COMPS,ioos:station:USF.COMPS:SHP:1,2019-07-04T04:54:00,30.0600,-84.2910,26.72,11111222 
COMPS,ioos:station:USF.COMPS:SHP:1,2019-07-04T05:54:00,30.0600,-84.2910,26.31,11111222 
COMPS,ioos:station:USF.COMPS:SHP:1,2019-07-04T06:54:00,30.0600,-84.2910,26.64,11111222 
COMPS,ioos:station:USF.COMPS:SHP:1,2019-07-04T07:54:00,30.0600,-84.2910,26.25,11111222 
COMPS,ioos:station:USF.COMPS:SHP:1,2019-07-04T08:54:00,30.0600,-84.2910,25.75,11111222 
COMPS,ioos:station:USF.COMPS:SHP:1,2019-07-04T09:54:00,30.0600,-84.2910,25.39,11111222 
COMPS,ioos:station:USF.COMPS:SHP:1,2019-07-04T10:54:00,30.0600,-84.2910,25.2,11111222 
COMPS,ioos:station:USF.COMPS:SHP:1,2019-07-04T11:54:00,30.0600,-84.2910,26.51,11111222 
COMPS,ioos:station:USF.COMPS:SHP:1,2019-07-04T12:54:00,30.0600,-84.2910,28.92,11111222 
COMPS,ioos:station:USF.COMPS:SHP:1,2019-07-04T13:54:00,30.0600,-84.2910,29.61,11111222 
COMPS,ioos:station:USF.COMPS:SHP:1,2019-07-04T14:54:00,30.0600,-84.2910,30.92,11111222 
COMPS,ioos:station:USF.COMPS:SHP:1,2019-07-04T15:54:00,30.0600,-84.2910,31.0,11111222 
COMPS,ioos:station:USF.COMPS:SHP:1,2019-07-04T16:54:00,30.0600,-84.2910,31.62,11111222 
COMPS,ioos:station:USF.COMPS:SHP:1,2019-07-04T17:54:00,30.0600,-84.2910,32.63,11111222 
COMPS,ioos:station:USF.COMPS:SHP:1,2019-07-04T18:54:00,30.0600,-84.2910,32.64,11111222 
COMPS,ioos:station:USF.COMPS:SHP:1,2019-07-04T19:54:00,30.0600,-84.2910,32.99,11111222 
COMPS,ioos:station:USF.COMPS:SHP:1,2019-07-04T20:54:00,30.0600,-84.2910,31.37,11111222 
COMPS,ioos:station:USF.COMPS:SHP:1,2019-07-04T21:54:00,30.0600,-84.2910,30.98,11111222 
COMPS,ioos:station:USF.COMPS:SHP:1,2019-07-04T22:54:00,30.0600,-84.2910,31.37,11111222 
COMPS,ioos:station:USF.COMPS:SHP:1,2019-07-04T23:54:00,30.0600,-84.2910,31.06,11111222 
COMPS,ioos:station:USF.COMPS:SHP:1,2019-07-05T00:54:00,30.0600,-84.2910,30.8,11111222 
COMPS,ioos:station:USF.COMPS:SHP:1,2019-07-05T01:54:00,30.0600,-84.2910,30.42,11111222 
COMPS,ioos:station:USF.COMPS:SHP:1,2019-07-05T02:54:00,30.0600,-84.2910,26.21,11111222 
COMPS,ioos:station:USF.COMPS:SHP:1,2019-07-05T03:54:00,30.0600,-84.2910,25.7,11111222 
COMPS,ioos:station:USF.COMPS:SHP:1,2019-07-05T04:54:00,30.0600,-84.2910,25.47,11111222 
COMPS,ioos:station:USF.COMPS:SHP:1,2019-07-05T05:54:00,30.0600,-84.2910,26.24,11111222 
COMPS,ioos:station:USF.COMPS:SHP:1,2019-07-05T06:54:00,30.0600,-84.2910,28.2,11111222 
COMPS,ioos:station:USF.COMPS:SHP:1,2019-07-05T07:54:00,30.0600,-84.2910,28.02,11111222 
COMPS,ioos:station:USF.COMPS:SHP:1,2019-07-05T08:54:00,30.0600,-84.2910,28.12,11111222 
COMPS,ioos:station:USF.COMPS:SHP:1,2019-07-05T09:54:00,30.0600,-84.2910,27.09,11111222 
COMPS,ioos:station:USF.COMPS:SHP:1,2019-07-05T10:54:00,30.0600,-84.2910,25.58,11111222 
COMPS,ioos:station:USF.COMPS:SHP:1,2019-07-05T11:54:00,30.0600,-84.2910,25.8,11111222 
COMPS,ioos:station:USF.COMPS:SHP:1,2019-07-05T12:54:00,30.0600,-84.2910,27.12,11111222 
COMPS,ioos:station:USF.COMPS:SHP:1,2019-07-05T13:54:00,30.0600,-84.2910,27.53,11111222 
COMPS,ioos:station:USF.COMPS:SHP:1,2019-07-05T14:54:00,30.0600,-84.2910,27.4,11111222 
COMPS,ioos:station:USF.COMPS:SHP:1,2019-07-05T15:54:00,30.0600,-84.2910,27.65,11111222 
COMPS,ioos:station:USF.COMPS:SHP:1,2019-07-05T16:54:00,30.0600,-84.2910,28.29,11111222 
COMPS,ioos:station:USF.COMPS:SHP:1,2019-07-05T17:54:00,30.0600,-84.2910,29.08,11111222 
COMPS,ioos:station:USF.COMPS:SHP:1,2019-07-05T18:54:00,30.0600,-84.2910,29.12,11111222 
COMPS,ioos:station:USF.COMPS:SHP:1,2019-07-05T19:54:00,30.0600,-84.2910,30.11,11111222 
COMPS,ioos:station:USF.COMPS:SHP:1,2019-07-05T20:54:00,30.0600,-84.2910,30.27,11111222 
COMPS,ioos:station:USF.COMPS:SHP:1,2019-07-05T21:54:00,30.0600,-84.2910,30.14,11111222 
COMPS,ioos:station:USF.COMPS:SHP:1,2019-07-05T22:54:00,30.0600,-84.2910,30.34,11111222 
COMPS,ioos:station:USF.COMPS:SHP:1,2019-07-05T23:54:00,30.0600,-84.2910,29.87,11111222 
COMPS,ioos:station:USF.COMPS:SHP:1,2019-07-06T00:54:00,30.0600,-84.2910,29.72,11111222 
COMPS,ioos:station:USF.COMPS:SHP:1,2019-07-06T01:54:00,30.0600,-84.2910,29.48,11111222 
COMPS,ioos:station:USF.COMPS:SHP:1,2019-07-06T02:54:00,30.0600,-84.2910,28.72,11111222 
COMPS,ioos:station:USF.COMPS:SHP:1,2019-07-06T03:54:00,30.0600,-84.2910,28.69,11111222 
COMPS,ioos:station:USF.COMPS:SHP:1,2019-07-06T04:54:00,30.0600,-84.2910,28.27,11111222 
COMPS,ioos:station:USF.COMPS:SHP:1,2019-07-06T05:54:00,30.0600,-84.2910,28.59,11111222 
COMPS,ioos:station:USF.COMPS:SHP:1,2019-07-06T06:54:00,30.0600,-84.2910,28.81,11111222 
COMPS,ioos:station:USF.COMPS:SHP:1,2019-07-06T07:54:00,30.0600,-84.2910,27.22,11111222 
COMPS,ioos:station:USF.COMPS:SHP:1,2019-07-06T08:54:00,30.0600,-84.2910,24.88,11111222 
COMPS,ioos:station:USF.COMPS:SHP:1,2019-07-06T09:54:00,30.0600,-84.2910,26.2,11111222 
COMPS,ioos:station:USF.COMPS:SHP:1,2019-07-06T10:54:00,30.0600,-84.2910,27.0,11111222 
COMPS,ioos:station:USF.COMPS:SHP:1,2019-07-06T11:54:00,30.0600,-84.2910,28.0,11111222 
COMPS,ioos:station:USF.COMPS:SHP:1,2019-07-06T12:54:00,30.0600,-84.2910,27.82,11111222 
COMPS,ioos:station:USF.COMPS:SHP:1,2019-07-06T13:54:00,30.0600,-84.2910,28.21,11111222 
COMPS,ioos:station:USF.COMPS:SHP:1,2019-07-06T14:54:00,30.0600,-84.2910,28.31,11111222 
COMPS,ioos:station:USF.COMPS:SHP:1,2019-07-06T15:54:00,30.0600,-84.2910,29.04,11111222 
COMPS,ioos:station:USF.COMPS:SHP:1,2019-07-06T16:54:00,30.0600,-84.2910,28.87,11111222 
COMPS,ioos:station:USF.COMPS:SHP:1,2019-07-06T17:54:00,30.0600,-84.2910,28.89,11111222 
COMPS,ioos:station:USF.COMPS:SHP:1,2019-07-06T18:54:00,30.0600,-84.2910,25.1,11111222 
COMPS,ioos:station:USF.COMPS:SHP:1,2019-07-06T19:54:00,30.0600,-84.2910,25.04,11111222 
COMPS,ioos:station:USF.COMPS:SHP:1,2019-07-06T20:54:00,30.0600,-84.2910,25.6,11111222 
COMPS,ioos:station:USF.COMPS:SHP:1,2019-07-06T21:54:00,30.0600,-84.2910,24.47,11111222 
COMPS,ioos:station:USF.COMPS:SHP:1,2019-07-06T22:54:00,30.0600,-84.2910,24.91,11111222 
COMPS,ioos:station:USF.COMPS:SHP:1,2019-07-06T23:54:00,30.0600,-84.2910,25.29,11111222 
COMPS,ioos:station:USF.COMPS:SHP:1,2019-07-07T00:54:00,30.0600,-84.2910,25.71,11111222 
COMPS,ioos:station:USF.COMPS:SHP:1,2019-07-07T01:54:00,30.0600,-84.2910,24.61,11111222 
COMPS,ioos:station:USF.COMPS:SHP:1,2019-07-07T02:54:00,30.0600,-84.2910,24.3,11111222 
COMPS,ioos:station:USF.COMPS:SHP:1,2019-07-07T03:54:00,30.0600,-84.2910,24.68,11111222 
COMPS,ioos:station:USF.COMPS:SHP:1,2019-07-07T04:54:00,30.0600,-84.2910,25.16,11111222 
COMPS,ioos:station:USF.COMPS:SHP:1,2019-07-07T05:54:00,30.0600,-84.2910,25.65,11111222 
COMPS,ioos:station:USF.COMPS:SHP:1,2019-07-07T06:54:00,30.0600,-84.2910,24.97,11111222 
COMPS,ioos:station:USF.COMPS:SHP:1,2019-07-07T07:54:00,30.0600,-84.2910,25.88,11111222 
COMPS,ioos:station:USF.COMPS:SHP:1,2019-07-07T08:54:00,30.0600,-84.2910,26.61,11111222 
COMPS,ioos:station:USF.COMPS:SHP:1,2019-07-07T09:54:00,30.0600,-84.2910,26.8,11111222 
COMPS,ioos:station:USF.COMPS:SHP:1,2019-07-07T10:54:00,30.0600,-84.2910,26.67,11111222 
COMPS,ioos:station:USF.COMPS:SHP:1,2019-07-07T11:54:00,30.0600,-84.2910,27.48,11111222 
COMPS,ioos:station:USF.COMPS:SHP:1,2019-07-07T12:54:00,30.0600,-84.2910,28.21,11111222 
COMPS,ioos:station:USF.COMPS:SHP:1,2019-07-07T13:54:00,30.0600,-84.2910,29.12,11111222 
COMPS,ioos:station:USF.COMPS:SHP:1,2019-07-07T14:54:00,30.0600,-84.2910,30.34,11111222 
COMPS,ioos:station:USF.COMPS:SHP:1,2019-07-07T15:54:00,30.0600,-84.2910,31.23,11111222 
COMPS,ioos:station:USF.COMPS:SHP:1,2019-07-07T16:54:00,30.0600,-84.2910,31.39,11111222 
COMPS,ioos:station:USF.COMPS:SHP:1,2019-07-07T17:54:00,30.0600,-84.2910,30.87,11111222 
COMPS,ioos:station:USF.COMPS:SHP:1,2019-07-07T18:54:00,30.0600,-84.2910,24.46,11111222 
COMPS,ioos:station:USF.COMPS:SHP:1,2019-07-07T19:54:00,30.0600,-84.2910,24.71,11111222 
COMPS,ioos:station:USF.COMPS:SHP:1,2019-07-07T20:54:00,30.0600,-84.2910,26.66,11111222 
COMPS,ioos:station:USF.COMPS:SHP:1,2019-07-07T21:54:00,30.0600,-84.2910,28.62,11111222 
COMPS,ioos:station:USF.COMPS:SHP:1,2019-07-07T22:54:00,30.0600,-84.2910,28.94,11111222 
COMPS,ioos:station:USF.COMPS:SHP:1,2019-07-07T23:54:00,30.0600,-84.2910,29.18,11111222 
COMPS,ioos:station:USF.COMPS:SHP:1,2019-07-08T00:54:00,30.0600,-84.2910,29.13,11111222 
COMPS,ioos:station:USF.COMPS:SHP:1,2019-07-08T01:54:00,30.0600,-84.2910,29.32,11111222 
COMPS,ioos:station:USF.COMPS:SHP:1,2019-07-08T02:54:00,30.0600,-84.2910,26.32,11111222 
COMPS,ioos:station:USF.COMPS:SHP:1,2019-07-08T03:54:00,30.0600,-84.2910,24.93,11111222 
COMPS,ioos:station:USF.COMPS:SHP:1,2019-07-08T04:54:00,30.0600,-84.2910,24.74,11111222 
COMPS,ioos:station:USF.COMPS:SHP:1,2019-07-08T05:54:00,30.0600,-84.2910,25.13,11111222 
COMPS,ioos:station:USF.COMPS:SHP:1,2019-07-08T06:54:00,30.0600,-84.2910,24.78,11111222 
COMPS,ioos:station:USF.COMPS:SHP:1,2019-07-08T07:54:00,30.0600,-84.2910,24.64,11111222 
COMPS,ioos:station:USF.COMPS:SHP:1,2019-07-08T08:54:00,30.0600,-84.2910,24.33,11111222 
COMPS,ioos:station:USF.COMPS:SHP:1,2019-07-08T09:54:00,30.0600,-84.2910,23.51,11111222 
COMPS,ioos:station:USF.COMPS:SHP:1,2019-07-08T10:54:00,30.0600,-84.2910,23.46,11111222 
COMPS,ioos:station:USF.COMPS:SHP:1,2019-07-08T11:54:00,30.0600,-84.2910,24.17,11111222 
COMPS,ioos:station:USF.COMPS:SHP:1,2019-07-08T12:54:00,30.0600,-84.2910,25.57,11111222 
COMPS,ioos:station:USF.COMPS:SHP:1,2019-07-08T13:54:00,30.0600,-84.2910,28.06,11111222 
COMPS,ioos:station:USF.COMPS:SHP:1,2019-07-08T14:54:00,30.0600,-84.2910,29.24,11111222 
COMPS,ioos:station:USF.COMPS:SHP:1,2019-07-08T15:54:00,30.0600,-84.2910,30.84,11111222 
COMPS,ioos:station:USF.COMPS:SHP:1,2019-07-08T16:54:00,30.0600,-84.2910,30.72,11111222 
COMPS,ioos:station:USF.COMPS:SHP:1,2019-07-08T17:54:00,30.0600,-84.2910,30.03,11111222 
COMPS,ioos:station:USF.COMPS:SHP:1,2019-07-08T18:54:00,30.0600,-84.2910,30.55,11111222 
COMPS,ioos:station:USF.COMPS:SHP:1,2019-07-08T19:54:00,30.0600,-84.2910,30.42,11111222 
COMPS,ioos:station:USF.COMPS:SHP:1,2019-07-08T20:54:00,30.0600,-84.2910,30.95,11111222 
COMPS,ioos:station:USF.COMPS:SHP:1,2019-07-08T21:54:00,30.0600,-84.2910,27.53,11111222 
COMPS,ioos:station:USF.COMPS:SHP:1,2019-07-08T22:54:00,30.0600,-84.2910,26.32,11111222 
COMPS,ioos:station:USF.COMPS:SHP:1,2019-07-08T23:54:00,30.0600,-84.2910,26.81,11111222 
COMPS,ioos:station:USF.COMPS:SHP:1,2019-07-09T00:54:00,30.0600,-84.2910,25.66,11111222 
COMPS,ioos:station:USF.COMPS:SHP:1,2019-07-09T01:54:00,30.0600,-84.2910,26.18,11111222 
COMPS,ioos:station:USF.COMPS:SHP:1,2019-07-09T02:54:00,30.0600,-84.2910,25.74,11111222 
COMPS,ioos:station:USF.COMPS:SHP:1,2019-07-09T03:54:00,30.0600,-84.2910,25.86,11111222 
COMPS,ioos:station:USF.COMPS:SHP:1,2019-07-09T04:54:00,30.0600,-84.2910,26.02,11111222 
COMPS,ioos:station:USF.COMPS:SHP:1,2019-07-09T05:54:00,30.0600,-84.2910,25.05,11111222 
COMPS,ioos:station:USF.COMPS:SHP:1,2019-07-09T06:54:00,30.0600,-84.2910,25.14,11111222 
COMPS,ioos:station:USF.COMPS:SHP:1,2019-07-09T07:54:00,30.0600,-84.2910,24.85,11111222 
COMPS,ioos:station:USF.COMPS:SHP:1,2019-07-09T08:54:00,30.0600,-84.2910,24.94,11111222 
COMPS,ioos:station:USF.COMPS:SHP:1,2019-07-09T09:54:00,30.0600,-84.2910,25.69,11111222 
COMPS,ioos:station:USF.COMPS:SHP:1,2019-07-09T10:54:00,30.0600,-84.2910,25.42,11111222 
COMPS,ioos:station:USF.COMPS:SHP:1,2019-07-09T11:54:00,30.0600,-84.2910,26.15,11111222 
COMPS,ioos:station:USF.COMPS:SHP:1,2019-07-09T12:54:00,30.0600,-84.2910,27.33,11111222 
COMPS,ioos:station:USF.COMPS:SHP:1,2019-07-09T13:54:00,30.0600,-84.2910,28.59,11111222 
COMPS,ioos:station:USF.COMPS:SHP:1,2019-07-09T14:54:00,30.0600,-84.2910,28.59,11111222 
COMPS,ioos:station:USF.COMPS:SHP:1,2019-07-09T15:54:00,30.0600,-84.2910,28.85,11111222 
COMPS,ioos:station:USF.COMPS:SHP:1,2019-07-09T16:54:00,30.0600,-84.2910,29.87,11111222 
COMPS,ioos:station:USF.COMPS:SHP:1,2019-07-09T17:54:00,30.0600,-84.2910,29.97,11111222 
COMPS,ioos:station:USF.COMPS:SHP:1,2019-07-09T18:54:00,30.0600,-84.2910,28.99,11111222 
COMPS,ioos:station:USF.COMPS:SHP:1,2019-07-09T19:54:00,30.0600,-84.2910,29.65,11111222 
COMPS,ioos:station:USF.COMPS:SHP:1,2019-07-09T20:54:00,30.0600,-84.2910,28.84,11111222 
COMPS,ioos:station:USF.COMPS:SHP:1,2019-07-09T21:54:00,30.0600,-84.2910,27.65,11111222 
COMPS,ioos:station:USF.COMPS:SHP:1,2019-07-09T22:54:00,30.0600,-84.2910,27.35,11111222 
COMPS,ioos:station:USF.COMPS:SHP:1,2019-07-09T23:54:00,30.0600,-84.2910,26.99,11111222 
COMPS,ioos:station:USF.COMPS:SHP:1,2019-07-10T00:54:00,30.0600,-84.2910,26.57,11111222 
COMPS,ioos:station:USF.COMPS:SHP:1,2019-07-10T01:54:00,30.0600,-84.2910,26.38,11111222 
COMPS,ioos:station:USF.COMPS:SHP:1,2019-07-10T02:54:00,30.0600,-84.2910,26.5,11111222 
COMPS,ioos:station:USF.COMPS:SHP:1,2019-07-10T03:54:00,30.0600,-84.2910,26.29,11111222 
COMPS,ioos:station:USF.COMPS:SHP:1,2019-07-10T04:54:00,30.0600,-84.2910,26.48,11111222 
COMPS,ioos:station:USF.COMPS:SHP:1,2019-07-10T05:54:00,30.0600,-84.2910,27.07,11111222 
COMPS,ioos:station:USF.COMPS:SHP:1,2019-07-10T06:54:00,30.0600,-84.2910,26.04,11111222 
COMPS,ioos:station:USF.COMPS:SHP:1,2019-07-10T07:54:00,30.0600,-84.2910,26.77,11111222 
COMPS,ioos:station:USF.COMPS:SHP:1,2019-07-10T08:54:00,30.0600,-84.2910,27.41,11111222 
COMPS,ioos:station:USF.COMPS:SHP:1,2019-07-10T09:54:00,30.0600,-84.2910,28.5,11111222 
COMPS,ioos:station:USF.COMPS:SHP:1,2019-07-10T10:54:00,30.0600,-84.2910,28.46,11111222 
COMPS,ioos:station:USF.COMPS:SHP:1,2019-07-10T11:54:00,30.0600,-84.2910,26.65,11111222 
COMPS,ioos:station:USF.COMPS:SHP:1,2019-07-10T12:54:00,30.0600,-84.2910,27.55,11111222 
COMPS,ioos:station:USF.COMPS:SHP:1,2019-07-10T13:54:00,30.0600,-84.2910,28.67,11111222 
COMPS,ioos:station:USF.COMPS:SHP:1,2019-07-10T14:54:00,30.0600,-84.2910,28.8,11111222 
COMPS,ioos:station:USF.COMPS:SHP:1,2019-07-10T15:54:00,30.0600,-84.2910,28.71,11111222 
COMPS,ioos:station:USF.COMPS:SHP:1,2019-07-10T16:54:00,30.0600,-84.2910,26.0,11111222 
COMPS,ioos:station:USF.COMPS:SHP:1,2019-07-10T17:54:00,30.0600,-84.2910,29.16,11111222 
COMPS,ioos:station:USF.COMPS:SHP:1,2019-07-10T18:54:00,30.0600,-84.2910,29.86,11111222 
COMPS,ioos:station:USF.COMPS:SHP:1,2019-07-10T19:54:00,30.0600,-84.2910,29.98,11111222 
COMPS,ioos:station:USF.COMPS:SHP:1,2019-07-10T20:54:00,30.0600,-84.2910,29.69,11111222 
COMPS,ioos:station:USF.COMPS:SHP:1,2019-07-10T21:54:00,30.0600,-84.2910,29.71,11111222 
COMPS,ioos:station:USF.COMPS:SHP:1,2019-07-10T22:54:00,30.0600,-84.2910,29.17,11111222 
COMPS,ioos:station:USF.COMPS:SHP:1,2019-07-10T23:54:00,30.0600,-84.2910,29.02,11111222 
COMPS,ioos:station:USF.COMPS:SHP:1,2019-07-11T00:54:00,30.0600,-84.2910,29.06,11111222 
COMPS,ioos:station:USF.COMPS:SHP:1,2019-07-11T01:54:00,30.0600,-84.2910,28.58,11111222 
COMPS,ioos:station:USF.COMPS:SHP:1,2019-07-11T02:54:00,30.0600,-84.2910,28.53,11111222 
COMPS,ioos:station:USF.COMPS:SHP:1,2019-07-11T03:54:00,30.0600,-84.2910,28.71,11111222 
COMPS,ioos:station:USF.COMPS:SHP:1,2019-07-11T04:54:00,30.0600,-84.2910,28.59,11111222 
COMPS,ioos:station:USF.COMPS:SHP:1,2019-07-11T05:54:00,30.0600,-84.2910,28.99,11111222 
COMPS,ioos:station:USF.COMPS:SHP:1,2019-07-11T06:54:00,30.0600,-84.2910,28.81,11111222 
COMPS,ioos:station:USF.COMPS:SHP:1,2019-07-11T07:54:00,30.0600,-84.2910,28.6,11111222 
COMPS,ioos:station:USF.COMPS:SHP:1,2019-07-11T08:54:00,30.0600,-84.2910,28.73,11111222 
COMPS,ioos:station:USF.COMPS:SHP:1,2019-07-11T09:54:00,30.0600,-84.2910,28.81,11111222 
COMPS,ioos:station:USF.COMPS:SHP:1,2019-07-11T10:54:00,30.0600,-84.2910,28.97,11111222 
COMPS,ioos:station:USF.COMPS:SHP:1,2019-07-11T11:54:00,30.0600,-84.2910,27.37,11111222 
COMPS,ioos:station:USF.COMPS:SHP:1,2019-07-11T12:54:00,30.0600,-84.2910,28.0,11111222 
COMPS,ioos:station:USF.COMPS:SHP:1,2019-07-11T13:54:00,30.0600,-84.2910,29.24,11111222 
COMPS,ioos:station:USF.COMPS:SHP:1,2019-07-11T14:54:00,30.0600,-84.2910,29.34,11111222 
COMPS,ioos:station:USF.COMPS:SHP:1,2019-07-11T15:54:00,30.0600,-84.2910,29.87,11111222 
COMPS,ioos:station:USF.COMPS:SHP:1,2019-07-11T16:54:00,30.0600,-84.2910,29.54,11111222 
COMPS,ioos:station:USF.COMPS:SHP:1,2019-07-11T17:54:00,30.0600,-84.2910,26.91,11111222 
COMPS,ioos:station:USF.COMPS:SHP:1,2019-07-11T18:54:00,30.0600,-84.2910,28.39,11111222 
COMPS,ioos:station:USF.COMPS:SHP:1,2019-07-11T19:54:00,30.0600,-84.2910,29.27,11111222 
COMPS,ioos:station:USF.COMPS:SHP:1,2019-07-11T20:54:00,30.0600,-84.2910,29.58,11111222 
COMPS,ioos:station:USF.COMPS:SHP:1,2019-07-11T21:54:00,30.0600,-84.2910,29.6,11111222 
COMPS,ioos:station:USF.COMPS:SHP:1,2019-07-11T22:54:00,30.0600,-84.2910,29.27,11111222 
COMPS,ioos:station:USF.COMPS:SHP:1,2019-07-11T23:54:00,30.0600,-84.2910,29.16,11111222 
COMPS,ioos:station:USF.COMPS:SHP:1,2019-07-12T00:54:00,30.0600,-84.2910,28.59,11111222 
COMPS,ioos:station:USF.COMPS:SHP:1,2019-07-12T01:54:00,30.0600,-84.2910,28.72,11111222 
COMPS,ioos:station:USF.COMPS:SHP:1,2019-07-12T02:54:00,30.0600,-84.2910,28.94,11111222 
COMPS,ioos:station:USF.COMPS:SHP:1,2019-07-12T03:54:00,30.0600,-84.2910,28.95,11111222 
COMPS,ioos:station:USF.COMPS:SHP:1,2019-07-12T04:54:00,30.0600,-84.2910,28.91,11111222 
COMPS,ioos:station:USF.COMPS:SHP:1,2019-07-12T05:54:00,30.0600,-84.2910,27.72,11111222 
COMPS,ioos:station:USF.COMPS:SHP:1,2019-07-12T06:54:00,30.0600,-84.2910,28.89,11111222 
COMPS,ioos:station:USF.COMPS:SHP:1,2019-07-12T07:54:00,30.0600,-84.2910,28.75,11111222 
COMPS,ioos:station:USF.COMPS:SHP:1,2019-07-12T08:54:00,30.0600,-84.2910,27.62,11111222 